This is the latest recevied weather packets stored in our database for station/object OK1VCF-8. If no packets are shown the sender has not sent any weather packets the latest 1 day(s).
| Time | Temp. | Humidity | Pressure | Rain* | Wind** | Luminosity | Snow |
|---|---|---|---|---|---|---|---|
| 1777976238 | 23.33° C | 44% | 1008.4 hPa | - | 0 m/s | - | - |
| 1777975798 | 23.33° C | 44% | 1008.4 hPa | - | 0 m/s | - | - |
| 1777975353 | 23.89° C | 44% | 1008.4 hPa | - | 0 m/s | - | - |
| 1777974912 | 23.33° C | 44% | 1008.4 hPa | - | 0 m/s | - | - |
| 1777974473 | 23.33° C | 47% | 1008.4 hPa | - | 0 m/s | - | - |
| 1777973870 | 22.78° C | 48% | 1008.6 hPa | - | 0 m/s | - | - |
| 1777973430 | 22.78° C | 50% | 1008.6 hPa | - | 0 m/s | - | - |
| 1777972990 | 22.22° C | 52% | 1008.8 hPa | - | 0 m/s | - | - |
| 1777972552 | 22.22° C | 54% | 1008.8 hPa | - | 0 m/s | - | - |
| 1777972111 | 21.67° C | 54% | 1008.8 hPa | - | 0 m/s | - | - |
| 1777971673 | 21.11° C | 54% | 1008.8 hPa | - | 0 m/s | - | - |
| 1777971233 | 21.11° C | 56% | 1009 hPa | - | 0 m/s | - | - |
| 1777970792 | 20.56° C | 58% | 1009 hPa | - | 0 m/s | - | - |
| 1777970352 | 20.56° C | 56% | 1009.2 hPa | - | 0 m/s | - | - |
| 1777969913 | 20° C | 56% | 1009.2 hPa | - | 0 m/s | - | - |
| 1777969472 | 20° C | 59% | 1009.1 hPa | - | 0 m/s | - | - |
| 1777969033 | 20° C | 60% | 1009.1 hPa | - | 0 m/s | - | - |
| 1777968595 | 19.44° C | 60% | 1009.2 hPa | - | 0 m/s | - | - |
| 1777968154 | 19.44° C | 62% | 1009.1 hPa | - | 0 m/s | - | - |
| 1777967714 | 19.44° C | 60% | 1009.2 hPa | - | 0 m/s | - | - |
| 1777967109 | 20° C | 60% | 1009.2 hPa | - | 0 m/s | - | - |
| 1777966669 | 20° C | 60% | 1009.4 hPa | - | 0 m/s | - | - |
| 1777966230 | 20° C | 59% | 1009.4 hPa | - | 0 m/s | - | - |
| 1777964905 | 20° C | 60% | 1009.4 hPa | - | 0 m/s | - | - |
| 1777964447 | 20° C | 64% | 1009.5 hPa | - | 0 m/s | - | - |
* Rain since midnight (hover to see other rain measurements)
** Current wind speed in m/s (hover to see current wind gust speed)